EWG48T LYBE-LDSP

Flight info

Callsign EWG48T
Flight time 0h 40m
Altitude 20000
Route VAL4J/30R VAL Y88 VEBAR DCT KENEM
Aircraft A321/M-SDE3FGHIRWY/LB1

Departure

Time 2026-04-30 08:31
Airport Belgrade Nikola Tesla Airport (LYBE)

Arrival

Time 2026-04-30 09:11
Airport Split Saint Jerome Airport (LDSP)
Time Latitude Longitude Altitude Speed Heading
2026-04-30 08:16 44.81894 20.29243 326 ft 0 kts 290°
2026-04-30 08:16 44.81737 20.29106 324 ft 0 kts 308°
2026-04-30 08:21 44.81737 20.29107 324 ft 2 kts 308°
2026-04-30 08:21 44.81720 20.29133 325 ft 4 kts 321°
2026-04-30 08:21 44.81697 20.29152 325 ft 4 kts 345°
2026-04-30 08:22 44.81674 20.29153 325 ft 3 kts 29°
2026-04-30 08:22 44.81671 20.29152 325 ft 0 kts 31°
2026-04-30 08:24 44.81673 20.29153 329 ft 1 kts 31°
2026-04-30 08:24 44.81688 20.29165 325 ft 5 kts 30°
2026-04-30 08:24 44.81738 20.29207 327 ft 12 kts 31°
2026-04-30 08:25 44.81827 20.29285 328 ft 17 kts 32°
2026-04-30 08:25 44.81930 20.29376 325 ft 18 kts 32°
2026-04-30 08:25 44.82039 20.29471 327 ft 19 kts 31°
2026-04-30 08:25 44.82117 20.29568 328 ft 12 kts 86°
2026-04-30 08:26 44.82079 20.29677 328 ft 13 kts 122°
2026-04-30 08:26 44.82028 20.29789 329 ft 14 kts 123°
2026-04-30 08:26 44.81976 20.29909 328 ft 15 kts 122°
2026-04-30 08:26 44.81920 20.30035 326 ft 16 kts 120°
2026-04-30 08:27 44.81861 20.30168 328 ft 16 kts 123°
2026-04-30 08:27 44.81794 20.30318 330 ft 20 kts 122°
2026-04-30 08:27 44.81720 20.30489 329 ft 21 kts 121°
2026-04-30 08:27 44.81643 20.30664 333 ft 21 kts 122°
2026-04-30 08:28 44.81563 20.30843 331 ft 22 kts 124°
2026-04-30 08:28 44.81481 20.31027 332 ft 22 kts 122°
2026-04-30 08:28 44.81397 20.31215 332 ft 23 kts 122°
2026-04-30 08:28 44.81311 20.31409 335 ft 24 kts 122°
2026-04-30 08:29 44.81224 20.31607 335 ft 24 kts 123°
2026-04-30 08:29 44.81133 20.31808 338 ft 25 kts 122°
2026-04-30 08:29 44.81043 20.32014 335 ft 24 kts 122°
2026-04-30 08:29 44.80993 20.32189 337 ft 18 kts 82°
2026-04-30 08:30 44.81088 20.32298 339 ft 19 kts 15°
2026-04-30 08:30 44.81198 20.32314 339 ft 8 kts
2026-04-30 08:30 44.81242 20.32285 337 ft 7 kts 304°
2026-04-30 08:30 44.81304 20.32146 337 ft 45 kts 302°
2026-04-30 08:31 44.81605 20.31469 331 ft 116 kts 302°
2026-04-30 08:31 44.82131 20.30291 488 ft 156 kts 305°
2026-04-30 08:31 44.82697 20.29002 1328 ft 156 kts 303°
2026-04-30 08:31 44.82921 20.27439 1768 ft 180 kts 265°
2026-04-30 08:32 44.82298 20.25771 2109 ft 207 kts 232°
2026-04-30 08:32 44.81223 20.24248 2342 ft 232 kts 225°
2026-04-30 08:32 44.80026 20.22525 2606 ft 260 kts 229°
2026-04-30 08:32 44.78796 20.20573 3237 ft 270 kts 231°
2026-04-30 08:33 44.77545 20.18567 4064 ft 275 kts 231°
2026-04-30 08:33 44.76289 20.16531 4945 ft 276 kts 232°
2026-04-30 08:33 44.75030 20.14494 5827 ft 276 kts 231°
2026-04-30 08:33 44.73766 20.12452 6679 ft 278 kts 231°
2026-04-30 08:34 44.72486 20.10392 7490 ft 280 kts 231°
2026-04-30 08:34 44.71200 20.08329 8319 ft 282 kts 231°
2026-04-30 08:34 44.69902 20.06256 9146 ft 283 kts 231°
2026-04-30 08:34 44.68594 20.04172 9960 ft 285 kts 230°
2026-04-30 08:35 44.67259 20.02056 10549 ft 295 kts 231°
2026-04-30 08:35 44.65849 19.99804 10718 ft 318 kts 231°
2026-04-30 08:35 44.64339 19.97387 10855 ft 341 kts 231°
2026-04-30 08:35 44.62732 19.94823 11136 ft 355 kts 230°
2026-04-30 08:36 44.61080 19.92203 11706 ft 361 kts 231°
2026-04-30 08:36 44.59405 19.89556 12353 ft 364 kts 231°
2026-04-30 08:36 44.57721 19.86894 13025 ft 367 kts 231°
2026-04-30 08:36 44.56041 19.84242 13629 ft 370 kts 231°
2026-04-30 08:37 44.54324 19.81531 14238 ft 373 kts 232°
2026-04-30 08:37 44.52591 19.78800 14799 ft 376 kts 232°
2026-04-30 08:37 44.50850 19.76056 15386 ft 378 kts 232°
2026-04-30 08:37 44.49098 19.73295 15990 ft 380 kts 232°
2026-04-30 08:38 44.47338 19.70522 16578 ft 382 kts 232°
2026-04-30 08:38 44.45571 19.67738 17153 ft 384 kts 232°
2026-04-30 08:38 44.43885 19.64855 17737 ft 380 kts 241°
2026-04-30 08:38 44.42720 19.61581 18385 ft 374 kts 250°
2026-04-30 08:39 44.41691 19.58239 18937 ft 374 kts 250°
2026-04-30 08:39 44.40678 19.54883 19450 ft 374 kts 250°
2026-04-30 08:39 44.39671 19.51527 19966 ft 372 kts 250°
2026-04-30 08:39 44.38669 19.48197 20310 ft 375 kts 250°
2026-04-30 08:40 44.37642 19.44781 20338 ft 387 kts 250°
2026-04-30 08:40 44.36585 19.41285 20330 ft 394 kts 250°
2026-04-30 08:40 44.35500 19.37716 20337 ft 403 kts 250°
2026-04-30 08:40 44.34396 19.34107 20330 ft 405 kts 250°
2026-04-30 08:41 44.33283 19.30492 20342 ft 406 kts 250°
2026-04-30 08:41 44.32169 19.26870 20343 ft 406 kts 250°
2026-04-30 08:41 44.31055 19.23241 20338 ft 410 kts 250°
2026-04-30 08:41 44.29930 19.19558 20343 ft 414 kts 250°
2026-04-30 08:42 44.28797 19.15855 20334 ft 415 kts 250°
2026-04-30 08:42 44.27660 19.12148 20340 ft 416 kts 250°
2026-04-30 08:42 44.26518 19.08445 20337 ft 415 kts 250°
2026-04-30 08:42 44.25372 19.04744 20339 ft 416 kts 250°
2026-04-30 08:43 44.24224 19.01033 20332 ft 416 kts 250°
2026-04-30 08:43 44.23079 18.97337 20331 ft 416 kts 250°
2026-04-30 08:43 44.21932 18.93643 20334 ft 416 kts 250°
2026-04-30 08:43 44.20781 18.89941 20312 ft 418 kts 250°
2026-04-30 08:44 44.19618 18.86202 20328 ft 422 kts 250°
2026-04-30 08:44 44.18452 18.82464 20318 ft 419 kts 249°
2026-04-30 08:44 44.17287 18.78748 20322 ft 418 kts 250°
2026-04-30 08:44 44.16125 18.75042 20321 ft 417 kts 250°
2026-04-30 08:45 44.14967 18.71331 20323 ft 417 kts 250°
2026-04-30 08:45 44.13810 18.67628 20318 ft 417 kts 250°
2026-04-30 08:45 44.12650 18.63929 20323 ft 417 kts 250°
2026-04-30 08:45 44.11489 18.60228 20321 ft 417 kts 250°
2026-04-30 08:46 44.10326 18.56524 20319 ft 417 kts 249°
2026-04-30 08:46 44.09161 18.52823 20306 ft 417 kts 249°
2026-04-30 08:46 44.07994 18.49131 20305 ft 417 kts 249°
2026-04-30 08:46 44.06828 18.45445 20305 ft 417 kts 249°
2026-04-30 08:47 44.05661 18.41761 20286 ft 416 kts 249°
2026-04-30 08:47 44.04494 18.38084 20295 ft 415 kts 249°
2026-04-30 08:47 44.03329 18.34417 20298 ft 415 kts 249°
2026-04-30 08:47 44.02162 18.30748 20297 ft 414 kts 249°
2026-04-30 08:48 44.00997 18.27085 20298 ft 415 kts 249°
2026-04-30 08:48 43.99832 18.23426 20302 ft 414 kts 249°
2026-04-30 08:48 43.98665 18.19771 20300 ft 414 kts 249°
2026-04-30 08:48 43.97499 18.16122 20298 ft 414 kts 249°
2026-04-30 08:49 43.96331 18.12472 20293 ft 414 kts 249°
2026-04-30 08:49 43.95160 18.08824 20291 ft 414 kts 249°
2026-04-30 08:49 43.93991 18.05179 20285 ft 413 kts 249°
2026-04-30 08:49 43.92826 18.01549 20277 ft 411 kts 249°
2026-04-30 08:50 43.91662 17.97925 20276 ft 411 kts 249°
2026-04-30 08:50 43.90497 17.94312 20275 ft 411 kts 249°
2026-04-30 08:50 43.89329 17.90698 20259 ft 411 kts 249°
2026-04-30 08:50 43.88153 17.87067 20282 ft 416 kts 249°
2026-04-30 08:51 43.86968 17.83408 20271 ft 416 kts 249°
2026-04-30 08:51 43.85784 17.79752 20270 ft 416 kts 249°
2026-04-30 08:51 43.84597 17.76085 20271 ft 417 kts 249°
2026-04-30 08:51 43.83410 17.72423 20251 ft 416 kts 249°
2026-04-30 08:52 43.82220 17.68764 20253 ft 416 kts 249°
2026-04-30 08:52 43.81027 17.65112 20224 ft 416 kts 249°
2026-04-30 08:52 43.79835 17.61472 20254 ft 415 kts 249°
2026-04-30 08:52 43.78644 17.57836 20250 ft 414 kts 249°
2026-04-30 08:53 43.77457 17.54205 20231 ft 414 kts 249°
2026-04-30 08:53 43.76673 17.51803 20232 ft 414 kts 249°
2026-04-30 08:53 43.75487 17.48180 20224 ft 413 kts 249°
2026-04-30 08:53 43.74299 17.44559 20220 ft 413 kts 249°
2026-04-30 08:54 43.73107 17.40940 20195 ft 414 kts 249°
2026-04-30 08:54 43.71916 17.37321 20188 ft 414 kts 249°
2026-04-30 08:54 43.70722 17.33686 20185 ft 415 kts 250°
2026-04-30 08:54 43.69528 17.30050 20185 ft 416 kts 249°
2026-04-30 08:55 43.68325 17.26404 19987 ft 418 kts 249°
2026-04-30 08:55 43.67123 17.22772 19464 ft 414 kts 249°
2026-04-30 08:55 43.65928 17.19170 18981 ft 411 kts 249°
2026-04-30 08:55 43.64738 17.15598 18508 ft 409 kts 249°
2026-04-30 08:56 43.63552 17.12037 17967 ft 407 kts 249°
2026-04-30 08:56 43.62371 17.08487 17436 ft 406 kts 249°
2026-04-30 08:56 43.61193 17.04949 16901 ft 405 kts 249°
2026-04-30 08:56 43.60013 17.01416 16372 ft 402 kts 249°
2026-04-30 08:57 43.58856 16.97975 15867 ft 389 kts 249°
2026-04-30 08:57 43.57728 16.94632 15367 ft 380 kts 251°
2026-04-30 08:57 43.56628 16.91369 14862 ft 371 kts 249°
2026-04-30 08:57 43.55553 16.88182 14366 ft 362 kts 248°
2026-04-30 08:58 43.54507 16.85068 13891 ft 355 kts 251°
2026-04-30 08:58 43.53482 16.81998 13355 ft 349 kts 249°
2026-04-30 08:58 43.52483 16.79005 12992 ft 339 kts 249°
2026-04-30 08:58 43.51508 16.76087 12700 ft 332 kts 251°
2026-04-30 08:59 43.50545 16.73220 12438 ft 325 kts 251°
2026-04-30 08:59 43.49599 16.70432 12167 ft 319 kts 252°
2026-04-30 08:59 43.48666 16.67665 11907 ft 320 kts 251°
2026-04-30 08:59 43.47726 16.64881 11648 ft 321 kts 249°
2026-04-30 09:00 43.46784 16.62102 11394 ft 320 kts 251°
2026-04-30 09:00 43.45842 16.59322 11139 ft 320 kts 252°
2026-04-30 09:00 43.44907 16.56575 10886 ft 313 kts 250°
2026-04-30 09:00 43.44000 16.53919 10697 ft 301 kts 253°
2026-04-30 09:01 43.43121 16.51348 10457 ft 294 kts 251°
2026-04-30 09:01 43.42256 16.48806 10216 ft 292 kts 249°
2026-04-30 09:01 43.41395 16.46278 9966 ft 291 kts 249°
2026-04-30 09:01 43.40537 16.43763 9694 ft 290 kts 249°
2026-04-30 09:02 43.38842 16.38799 9188 ft 288 kts 250°
2026-04-30 09:02 43.37993 16.36312 8866 ft 286 kts 248°
2026-04-30 09:02 43.37149 16.33844 8465 ft 286 kts 247°
2026-04-30 09:03 43.36305 16.31367 8051 ft 286 kts 248°
2026-04-30 09:03 43.35462 16.28897 7604 ft 286 kts 248°
2026-04-30 09:03 43.34618 16.26431 7217 ft 285 kts 248°
2026-04-30 09:03 43.33775 16.23979 6831 ft 284 kts 249°
2026-04-30 09:04 43.32931 16.21534 6444 ft 282 kts 246°
2026-04-30 09:04 43.32095 16.19115 6063 ft 280 kts 247°
2026-04-30 09:04 43.31474 16.16589 5576 ft 279 kts 265°
2026-04-30 09:04 43.31587 16.13976 5137 ft 273 kts 290°
2026-04-30 09:05 43.32424 16.11689 4697 ft 266 kts 314°
2026-04-30 09:05 43.33785 16.10031 4277 ft 261 kts 328°
2026-04-30 09:05 43.35251 16.08570 3880 ft 259 kts 331°
2026-04-30 09:05 43.36843 16.07537 3624 ft 247 kts 349°
2026-04-30 09:06 43.38478 16.07219 3496 ft 229 kts
2026-04-30 09:06 43.39992 16.07502 3391 ft 211 kts 19°
2026-04-30 09:06 43.41296 16.08239 3233 ft 196 kts 32°
2026-04-30 09:06 43.42354 16.09309 3097 ft 183 kts 44°
2026-04-30 09:07 43.43165 16.10592 2896 ft 177 kts 52°
2026-04-30 09:07 43.43900 16.11902 2810 ft 167 kts 52°
2026-04-30 09:07 43.44596 16.13145 2772 ft 163 kts 52°
2026-04-30 09:07 43.45280 16.14363 2606 ft 160 kts 52°
2026-04-30 09:08 43.45962 16.15582 2435 ft 159 kts 52°
2026-04-30 09:08 43.46637 16.16786 2223 ft 159 kts 51°
2026-04-30 09:08 43.47306 16.17983 2005 ft 157 kts 51°
2026-04-30 09:08 43.47962 16.19155 1784 ft 152 kts 52°
2026-04-30 09:09 43.48584 16.20268 1605 ft 142 kts 53°
2026-04-30 09:09 43.49184 16.21353 1409 ft 143 kts 53°
2026-04-30 09:09 43.49792 16.22444 1246 ft 145 kts 54°
2026-04-30 09:09 43.50414 16.23557 1038 ft 146 kts 56°
2026-04-30 09:10 43.51027 16.24651 828 ft 144 kts 54°
2026-04-30 09:10 43.51638 16.25751 675 ft 147 kts 54°
2026-04-30 09:10 43.52266 16.26882 398 ft 147 kts 52°
2026-04-30 09:10 43.52861 16.27932 224 ft 133 kts 51°
2026-04-30 09:11 43.53402 16.28905 87 ft 118 kts 51°
2026-04-30 09:11 43.53808 16.29636 67 ft 59 kts 53°
2026-04-30 09:11 43.53986 16.29959 62 ft 36 kts 53°
2026-04-30 09:11 43.54045 16.30093 63 ft 8 kts 106°
2026-04-30 09:12 43.53992 16.30095 65 ft 10 kts 194°
2026-04-30 09:12 43.53925 16.30068 68 ft 9 kts 199°
2026-04-30 09:12 43.53907 16.30054 68 ft 0 kts 215°
2026-04-30 09:14 43.53893 16.30038 61 ft 8 kts 219°
2026-04-30 09:14 43.53838 16.29940 63 ft 16 kts 233°
2026-04-30 09:14 43.53789 16.29867 60 ft 4 kts 179°
2026-04-30 09:14 43.53775 16.29903 65 ft 6 kts 115°
2026-04-30 09:15 43.53764 16.29935 66 ft 2 kts 116°
2026-04-30 09:15 43.53761 16.29943 60 ft 0 kts 116°
2026-04-30 09:15 43.53763 16.29938 67 ft 0 kts 116°
2026-04-30 09:16 43.53764 16.29934 66 ft 0 kts 116°